FENGYUN 1C DEB, 29907

Orbit data source: Space-Track

FENGYUN 1C DEB, 29907 is space debris in SSO originally from a launch on Mon, 10 May 1999 UTC launched from the Taiyaun Space Center, China (TSC). Fengyun 1C debris stems from the Chinese weather satellite Fengyun-1C, which was intentionally destroyed by a Chinese anti-satellite missile in 2007. This event dramatically increased the amount of space debris, with thousands of trackable fragments posing hazards to satellites and human spaceflight. The Fengyun 1C debris cloud has become a focal point in discussions about space sustainability and the need for international regulations to prevent the creation of new debris.

Loading next visibility...
Identifier
29907, 1999-025HD
Orbit
SSO
Country
Flag of CNCN / PRC
Related business
Manufacturer
Unknown
Mission
Spacecraft
Bus & Motor
Unknown
Mass
Unknown
Launch date (UTC)
1999-05-10 (27 years ago)
Launch vehicle
Unknown
Launch site
Taiyaun Space Center, China (TSC)
Object type
Payload
Rocket body
Debris
Shape & HBR
Unknown shape, 0.1 m
Radar Cross Section
Small (<0.1 m²)

Expand to show TLE details & history
Last TLE update: 21 hours ago

TLE from 21 hours ago
0 FENGYUN 1C DEB
1 29907U 99025HD  26073.11798961  .00001981  00000-0  10704-2 0  9995
2 29907  99.1007 146.1982 0080497 354.3931  64.0743 14.12174624978888
Epoch: 2026-03-14T02:49Z
TLE epoch observation values (Epoch: 2026-03-14T02:49:54.302Z)
Latitude
58.20547°
Longitude
-82.91646°
Altitude
836.64 km
Speed
7.453 km/s
True Right ascension
08h 45m 12s
True Declination
58° 03' 11"
Sunlit
Object was in daylight at epoch
Visualization orbit readout
Latitude
Unknown
Longitude
Unknown
Altitude
Unknown
Speed
Unknown
Apparent Right ascension
Unknown
Apparent Declination
Unknown
Sunlit
N/A
Visualization observer readout
Local Sidereal Time
04:33:18
Azimuth
Unknown
Elevation
Unknown
Doppler factor
Unknown
Orbital elements
Apogee altitude
907.305 km
Perigee altitude
790.95 km
Semi-major axis
7,227.265 km
Eccentricity
0.00805
Inclination
99.1007°
RAAN
146.1982°
Arg. of periapsis
354.3931°
True anomaly
64.90753°
Mean anomaly
64.0743°
Eccentric anomaly
64.49055°
Mean motion
3.5325 °/min
Orbital period
101.91 mins
BSTAR
0.0010704
Loading maneuver chart data...
Computing Atmospheric mass density...

Documentation

Showing up to 5 results
|